Showing default

NUSAT-41 (C PAYNE-G), 56944

Orbit data source: Space-Track

NUSAT-41 (C PAYNE-G), 56944 is a payload satellite owned by URUGUS S.A. (AR) in SSO that was launched on Mon, 12 Jun 2023 UTC via an FALCON 9 launch vehicle from the Air Force Western Test Range (AFWTR). Payload-class satellites include a variety of spacecraft equipped with specific instruments for various scientific and technological missions. These include communications satellites like Starlink; space stations such as the ISS; scientific satellites like the Hubble; Earth observation satellites from companies like Planet Labs, Umbra, and HawkEye 360; GPS; miniature CubeSats for education and research; and military/defense satellites.

Loading next visibility...
Identifier
56944, 2023-084N
Orbit
SSO
Country
Flag of ARAR / ARGN
Related business
Manufacturer
URUGUS S.A.
Mission
Operational Commercial Imaging
Bus & Motor
NEWSAT V, Unknown motor
Mass
41.5 kg wet, 38.5 kg dry
Launch date (UTC)
2023-06-12 (3 years ago)
Launch vehicle
FALCON 9
Launch site
Air Force Western Test Range (AFWTR)
Object type
Payload
Rocket body
Debris
Shape & HBR
Box, 1.0 m
Radar Cross Section
0.542 m², Medium (>0.1 m² and < 1m²)

Expand to show TLE details & history
Last TLE update: 8 hours ago

TLE from 8 hours ago
0 NUSAT-41 (C PAYNE-G)
1 56944U 23084N   26267.33374288  .00007776  00000-0  26643-3 0  9997
2 56944  97.5647  45.7409 0006779 338.7133  21.3825 15.30472602182949
Epoch: 2026-09-24T08:00Z
TLE epoch observation values (Epoch: 2026-09-24T08:00:35.384Z)
Latitude
0.00002°
Longitude
-77.57855°
Altitude
473.175 km
Speed
7.632 km/s
True Right ascension
03h 02m 57s
True Declination
0° 00' 00"
Sunlit
Object was in full shadow at epoch
Visualization orbit readout
Latitude
Unknown
Longitude
Unknown
Altitude
Unknown
Speed
Unknown
Apparent Right ascension
Unknown
Apparent Declination
Unknown
Sunlit
N/A
Visualization observer readout
Local Sidereal Time
09:07:09
Azimuth
Unknown
Elevation
Unknown
Doppler factor
Unknown
Orbital elements
Apogee altitude
476.003 km
Perigee altitude
466.717 km
Semi-major axis
6,849.497 km
Eccentricity
0.00068
Inclination
97.5647°
RAAN
45.7409°
Arg. of periapsis
338.7133°
True anomaly
21.41084°
Mean anomaly
21.3825°
Eccentric anomaly
21.39667°
Mean motion
3.82873 °/min
Orbital period
94.03 mins
BSTAR
0.00026643
Loading maneuver chart data...
Computing Atmospheric mass density...

Documentation

Showing up to 5 results
|